This demonstration page uses our WeatherBlox Daily Observations layout. Learn more.

Left ArrowRight Arrow

39.08367, -84.50855

Hourly Observations for November 16, 2015

Temp ( °F °C ) Dew Point ( °F °C ) Humidity (%) Winds ( mph kmh ) Pressure ( in mb ) Visibility ( mi km ) Precip ( " mm )
12:53 am 00:53 Clear 35 1.7 34 1.1 96 96 Calm 30.32 1027 10 16 0.00 0.00
1:53 am 01:53 Clear 35 1.7 35 1.7 100 100 Calm 30.32 1027 10 16 0.00 0.00
2:53 am 02:53 Clear 36 2.2 35 1.7 97 97 ENE 3 6 30.31 1026 10 16 0.00 0.00
3:53 am 03:53 Clear 36 2.2 35 1.7 97 97 Calm 30.31 1026 10 16 0.00 0.00
4:53 am 04:53 Clear with Mist and Fog 33 0.6 33 0.6 100 100 Calm 30.31 1027 3 5 0.00 0.00
4:55 am 04:55 Clear with Mist and Fog 33 0.6 33 0.6 100 100 Calm 30.33 1027 2 3 0.00 0.00
5:05 am 05:05 Clear with Mist and Fog 33 0.6 33 0.6 100 100 Calm 30.33 1027 1 1 0.00 0.00
5:10 am 05:10 Clear with Mist and Fog 34 1 34 1 100 100 Calm 30.33 1027 2 3 0.00 0.00
5:18 am 05:18 Clear with Mist and Fog 34 1 34 1 100 100 Calm 30.33 1027 4 6 0.00 0.00
5:46 am 05:46 Clear with Mist and Fog 32 0 32 0 100 100 Calm 30.33 1027 2 3 0.00 0.00
5:53 am 05:53 Clear with Mist and Fog 33 0.6 33 0.6 100 100 Calm 30.32 1027 1 1 0.00 0.00
6:27 am 06:27 Clear with Mist and Fog 32 0 32 0 100 100 Calm 30.36 1028 3 5 0.00 0.00
6:53 am 06:53 Clear with Mist and Fog 32 0 32 0 100 100 Calm 30.33 1027 6 10 0.00 0.00
7:53 am 07:53 Sunny with Patchy Fog 32 0 32 0 100 100 Calm 30.32 1027 6 10 0.00 0.00
8:53 am 08:53 Sunny 37 2.8 37 2.8 100 100 Calm 30.33 1027 7 11 0.00 0.00
9:53 am 09:53 Sunny 45 7.2 39 3.9 80 80 SSW 5 7 30.33 1027 10 16 0.00 0.00
10:53 am 10:53 Sunny 53 11.7 34 1.1 48 48 Calm 30.32 1027 10 16 0.00 0.00
11:53 am 11:53 Sunny 56 13.3 33 0.6 42 42 S 8 13 30.29 1026 10 16 0.00 0.00
12:53 pm 12:53 Sunny 57 13.9 34 1.1 42 42 S 8 13 30.26 1025 10 16 0.00 0.00
1:53 pm 13:53 Sunny 58 14.4 31 -0.6 36 36 S 8 13 30.24 1024 10 16 0.00 0.00
2:53 pm 14:53 Sunny 57 13.9 33 0.6 41 41 S 10 17 30.24 1024 10 16 0.00 0.00
3:53 pm 15:53 Sunny 57 13.9 34 1.1 42 42 SE 6 9 30.24 1024 10 16 0.00 0.00
4:53 pm 16:53 Partly Cloudy 56 13.3 34 1.1 44 44 Calm 30.24 1024 10 16 0.00 0.00
5:53 pm 17:53 Cloudy 52 11.1 38 3.3 59 59 Calm 30.26 1025 10 16 0.00 0.00
6:53 pm 18:53 Cloudy with Light Rain 50 10 43 6.1 77 77 Calm 30.27 1025 10 16 0.00 0.03
7:53 pm 19:53 Cloudy with Light Rain 49 9.4 46 7.8 90 90 Calm 30.28 1025 10 16 0.00 0.03
8:53 pm 20:53 Cloudy 49 9.4 46 7.8 90 90 Calm 30.27 1025 10 16 0.00 0.03
9:53 pm 21:53 Cloudy 48 8.9 47 8.3 96 96 Calm 30.26 1025 10 16 0.00 0.00
10:53 pm 22:53 Cloudy 49 9.4 47 8.3 93 93 Calm 30.24 1024 10 16 0.00 0.00
11:53 pm 23:53 Cloudy 49 9.4 48 8.9 97 97 Calm 30.22 1024 10 16 0.00 0.00

Powered by AerisWeather